Location: *
(13.2257°S, 48.7193°W)
Time: 13:03:42
(UTC+00:00)

Cosmos 44 Rocket - Pass Details

Date: 13 February 2026
Orbit: 632 x 745 km, 65.1° (Epoch: 11 March)

Event Time Altitude Azimuth Distance (km) Brightness Sun altitude
Rises 08:40:03 0° 343° (NNW) 3,128 6.3 -8.5°
Reaches altitude 10° 08:42:26 10° 345° (NNW) 2,199 5.6 -8.0°
Maximum altitude 08:47:26 71° 68° (ENE) 746 3.7 -6.8°
Drops below altitude 10° 08:52:18 10° 152° (SSE) 2,146 6.5 -5.7°
Sets 08:54:37 0° 154° (SSE) 3,047 7.3 -5.1°
